Location: Carabito
(9.8355°N, 67.9249°W)
Time: 02:17:35
(UTC+00:00)

CZ-4B R/B - Pass Details

Date: 16 August 2024
Orbit: 807 x 881 km, 99.0° (Epoch: 08 September)

Event Time Altitude Azimuth Distance (km) Brightness Sun altitude
Exits shadow 00:01:32 25° 78° (ENE) 1,707 4.3 -18.0°
Maximum altitude 00:01:44 25° 74° (ENE) 1,705 4.3 -18.0°
Drops below altitude 10° 00:06:13 10° 22° (NNE) 2,531 5.6 -19.1°
Sets 00:09:00 0° 9° (N) 3,466 6.5 -19.7°
